Export;EXP-2023-01 (20230708 12:17);;;StationsCode;NL01492;NL01494;NL01496
Periode;20070101 00:00 - 20080101 00:00;;;BeheerderMeetStation;DCMR;DCMR;DCMR
Bron;https://data.rivm.nl/data/luchtmeetnet;;;StationsNaam;Rotterdam-Vasteland;Schiedam-Alphons Arienstraat;Hoek v. Holland-Berghaven
Beschrijving data;https://data.rivm.nl/data/luchtmeetnet/readme.pdf;;;Latitude,Longitude;(51.914264,4.479992);(51.921389,4.401389);(51.977803,4.121944)
Accreditatienummer;https://www.rva.nl/alle-geaccrediteerden/;;;StationsGebied;stad;stad;voorstad
;;;;StationsType;verkeer;achtergrond;industrie
;;;;Meetprincipe;Multi-hoek absorptie fotometrie (MAAP);Multi-hoek absorptie fotometrie (MAAP);Multi-hoek absorptie fotometrie (MAAP)
;;;;Meetopstelling;Thermo Scientific 5012 MAAP  ;Thermo Scientific 5012 MAAP  ;Thermo Scientific 5012 MAAP  
;;;;Accreditatienummer;L520;L520;L520
Component;Bep.periode;Eenheid; Begindatumtijd;Einddatumtijd;NL01492;NL01494;NL01496
BC;uur;�g/m�;20070101 00:00;20070101 01:00;;2.879;
BC;uur;�g/m�;20070101 01:00;20070101 02:00;;1.587;
BC;uur;�g/m�;20070101 02:00;20070101 03:00;;0.536;
BC;uur;�g/m�;20070101 03:00;20070101 04:00;;0.543;
BC;uur;�g/m�;20070101 04:00;20070101 05:00;;0.418;
BC;uur;�g/m�;20070101 05:00;20070101 06:00;;0.335;
BC;uur;�g/m�;20070101 06:00;20070101 07:00;;0.18;
BC;uur;�g/m�;20070101 07:00;20070101 08:00;;0.19;
BC;uur;�g/m�;20070101 08:00;20070101 09:00;;0.162;
BC;uur;�g/m�;20070101 09:00;20070101 10:00;;0.361;
BC;uur;�g/m�;20070101 10:00;20070101 11:00;;0.391;
BC;uur;�g/m�;20070101 11:00;20070101 12:00;;0.155;
BC;uur;�g/m�;20070101 12:00;20070101 13:00;;0.186;
BC;uur;�g/m�;20070101 13:00;20070101 14:00;;0.262;
BC;uur;�g/m�;20070101 14:00;20070101 15:00;;0.314;
BC;uur;�g/m�;20070101 15:00;20070101 16:00;;0.387;
BC;uur;�g/m�;20070101 16:00;20070101 17:00;;0.391;
BC;uur;�g/m�;20070101 17:00;20070101 18:00;;0.553;
BC;uur;�g/m�;20070101 18:00;20070101 19:00;;0.776;
BC;uur;�g/m�;20070101 19:00;20070101 20:00;;1.195;
BC;uur;�g/m�;20070101 20:00;20070101 21:00;;0.883;
BC;uur;�g/m�;20070101 21:00;20070101 22:00;;0.857;
BC;uur;�g/m�;20070101 22:00;20070101 23:00;;0.957;
BC;uur;�g/m�;20070101 23:00;20070102 00:00;;0.886;
BC;uur;�g/m�;20070102 00:00;20070102 01:00;;0.241;
BC;uur;�g/m�;20070102 01:00;20070102 02:00;;0.133;
BC;uur;�g/m�;20070102 02:00;20070102 03:00;;0.222;
BC;uur;�g/m�;20070102 03:00;20070102 04:00;;0.228;
BC;uur;�g/m�;20070102 04:00;20070102 05:00;;0.224;
BC;uur;�g/m�;20070102 05:00;20070102 06:00;;0.27;
BC;uur;�g/m�;20070102 06:00;20070102 07:00;;0.366;
BC;uur;�g/m�;20070102 07:00;20070102 08:00;;0.696;
BC;uur;�g/m�;20070102 08:00;20070102 09:00;;0.701;
BC;uur;�g/m�;20070102 09:00;20070102 10:00;;0.626;
BC;uur;�g/m�;20070102 10:00;20070102 11:00;;0.527;
BC;uur;�g/m�;20070102 11:00;20070102 12:00;;0.674;
BC;uur;�g/m�;20070102 12:00;20070102 13:00;;0.548;
BC;uur;�g/m�;20070102 13:00;20070102 14:00;;0.56;
BC;uur;�g/m�;20070102 14:00;20070102 15:00;;0.825;
BC;uur;�g/m�;20070102 15:00;20070102 16:00;;1.066;
BC;uur;�g/m�;20070102 16:00;20070102 17:00;;0.924;
BC;uur;�g/m�;20070102 17:00;20070102 18:00;;0.805;
BC;uur;�g/m�;20070102 18:00;20070102 19:00;;0.873;
BC;uur;�g/m�;20070102 19:00;20070102 20:00;;0.686;
BC;uur;�g/m�;20070102 20:00;20070102 21:00;;0.642;
BC;uur;�g/m�;20070102 21:00;20070102 22:00;;0.512;
BC;uur;�g/m�;20070102 22:00;20070102 23:00;;0.331;
BC;uur;�g/m�;20070102 23:00;20070103 00:00;;0.393;
BC;uur;�g/m�;20070103 00:00;20070103 01:00;;1.127;
BC;uur;�g/m�;20070103 01:00;20070103 02:00;;0.381;
BC;uur;�g/m�;20070103 02:00;20070103 03:00;;0.256;
BC;uur;�g/m�;20070103 03:00;20070103 04:00;;0.164;
BC;uur;�g/m�;20070103 04:00;20070103 05:00;;0.36;
BC;uur;�g/m�;20070103 05:00;20070103 06:00;;0.795;
BC;uur;�g/m�;20070103 06:00;20070103 07:00;;0.838;
BC;uur;�g/m�;20070103 07:00;20070103 08:00;;1.494;
BC;uur;�g/m�;20070103 08:00;20070103 09:00;;;
BC;uur;�g/m�;20070103 09:00;20070103 10:00;;2.2;
BC;uur;�g/m�;20070103 10:00;20070103 11:00;;2.027;
BC;uur;�g/m�;20070103 11:00;20070103 12:00;;1.501;
BC;uur;�g/m�;20070103 12:00;20070103 13:00;;1.744;
BC;uur;�g/m�;20070103 13:00;20070103 14:00;;2.23;
BC;uur;�g/m�;20070103 14:00;20070103 15:00;;2.252;
BC;uur;�g/m�;20070103 15:00;20070103 16:00;;2.063;
BC;uur;�g/m�;20070103 16:00;20070103 17:00;;1.655;
BC;uur;�g/m�;20070103 17:00;20070103 18:00;;1.505;
BC;uur;�g/m�;20070103 18:00;20070103 19:00;;1.26;
BC;uur;�g/m�;20070103 19:00;20070103 20:00;;1.182;
BC;uur;�g/m�;20070103 20:00;20070103 21:00;;1.156;
BC;uur;�g/m�;20070103 21:00;20070103 22:00;;1.186;
BC;uur;�g/m�;20070103 22:00;20070103 23:00;;1.092;
BC;uur;�g/m�;20070103 23:00;20070104 00:00;;1.003;
BC;uur;�g/m�;20070104 00:00;20070104 01:00;;0.791;
BC;uur;�g/m�;20070104 01:00;20070104 02:00;;0.657;
BC;uur;�g/m�;20070104 02:00;20070104 03:00;;0.555;
BC;uur;�g/m�;20070104 03:00;20070104 04:00;;0.485;
BC;uur;�g/m�;20070104 04:00;20070104 05:00;;0.454;
BC;uur;�g/m�;20070104 05:00;20070104 06:00;;0.486;
BC;uur;�g/m�;20070104 06:00;20070104 07:00;;0.519;
BC;uur;�g/m�;20070104 07:00;20070104 08:00;;0.687;
BC;uur;�g/m�;20070104 08:00;20070104 09:00;;0.498;
BC;uur;�g/m�;20070104 09:00;20070104 10:00;;0.444;
BC;uur;�g/m�;20070104 10:00;20070104 11:00;;0.534;
BC;uur;�g/m�;20070104 11:00;20070104 12:00;;0.502;
BC;uur;�g/m�;20070104 12:00;20070104 13:00;;0.477;
BC;uur;�g/m�;20070104 13:00;20070104 14:00;;0.642;
BC;uur;�g/m�;20070104 14:00;20070104 15:00;;0.709;
BC;uur;�g/m�;20070104 15:00;20070104 16:00;;0.919;
BC;uur;�g/m�;20070104 16:00;20070104 17:00;;0.705;
BC;uur;�g/m�;20070104 17:00;20070104 18:00;;0.788;
BC;uur;�g/m�;20070104 18:00;20070104 19:00;;0.83;
BC;uur;�g/m�;20070104 19:00;20070104 20:00;;0.766;
BC;uur;�g/m�;20070104 20:00;20070104 21:00;;0.71;
BC;uur;�g/m�;20070104 21:00;20070104 22:00;;0.688;
BC;uur;�g/m�;20070104 22:00;20070104 23:00;;0.609;
BC;uur;�g/m�;20070104 23:00;20070105 00:00;;0.546;
BC;uur;�g/m�;20070105 00:00;20070105 01:00;;0.468;
BC;uur;�g/m�;20070105 01:00;20070105 02:00;;0.45;
BC;uur;�g/m�;20070105 02:00;20070105 03:00;;0.46;
BC;uur;�g/m�;20070105 03:00;20070105 04:00;;0.571;
BC;uur;�g/m�;20070105 04:00;20070105 05:00;;0.876;
BC;uur;�g/m�;20070105 05:00;20070105 06:00;;0.684;
BC;uur;�g/m�;20070105 06:00;20070105 07:00;;0.762;
BC;uur;�g/m�;20070105 07:00;20070105 08:00;;0.975;
BC;uur;�g/m�;20070105 08:00;20070105 09:00;;2.485;
BC;uur;�g/m�;20070105 09:00;20070105 10:00;;2.043;
BC;uur;�g/m�;20070105 10:00;20070105 11:00;;2.025;
BC;uur;�g/m�;20070105 11:00;20070105 12:00;;1.817;
BC;uur;�g/m�;20070105 12:00;20070105 13:00;;1.29;
BC;uur;�g/m�;20070105 13:00;20070105 14:00;;1.23;
BC;uur;�g/m�;20070105 14:00;20070105 15:00;;1.595;
BC;uur;�g/m�;20070105 15:00;20070105 16:00;;1.491;
BC;uur;�g/m�;20070105 16:00;20070105 17:00;;1.402;
BC;uur;�g/m�;20070105 17:00;20070105 18:00;;1.469;
BC;uur;�g/m�;20070105 18:00;20070105 19:00;;1.221;
BC;uur;�g/m�;20070105 19:00;20070105 20:00;;1.251;
BC;uur;�g/m�;20070105 20:00;20070105 21:00;;1.124;
BC;uur;�g/m�;20070105 21:00;20070105 22:00;;1.141;
BC;uur;�g/m�;20070105 22:00;20070105 23:00;;1.045;
BC;uur;�g/m�;20070105 23:00;20070106 00:00;;1.103;
BC;uur;�g/m�;20070106 00:00;20070106 01:00;;0.907;
BC;uur;�g/m�;20070106 01:00;20070106 02:00;;0.726;
BC;uur;�g/m�;20070106 02:00;20070106 03:00;;0.321;
BC;uur;�g/m�;20070106 03:00;20070106 04:00;;0.531;
BC;uur;�g/m�;20070106 04:00;20070106 05:00;;0.811;
BC;uur;�g/m�;20070106 05:00;20070106 06:00;;1.011;
BC;uur;�g/m�;20070106 06:00;20070106 07:00;;1.263;
BC;uur;�g/m�;20070106 07:00;20070106 08:00;;1.743;
BC;uur;�g/m�;20070106 08:00;20070106 09:00;;1.514;
BC;uur;�g/m�;20070106 09:00;20070106 10:00;;2.099;
BC;uur;�g/m�;20070106 10:00;20070106 11:00;;1.864;
BC;uur;�g/m�;20070106 11:00;20070106 12:00;;1.489;
BC;uur;�g/m�;20070106 12:00;20070106 13:00;;1.212;
BC;uur;�g/m�;20070106 13:00;20070106 14:00;;1.317;
BC;uur;�g/m�;20070106 14:00;20070106 15:00;;1.743;
BC;uur;�g/m�;20070106 15:00;20070106 16:00;;2.103;
BC;uur;�g/m�;20070106 16:00;20070106 17:00;;2.452;
BC;uur;�g/m�;20070106 17:00;20070106 18:00;;2.836;
BC;uur;�g/m�;20070106 18:00;20070106 19:00;;2.313;
BC;uur;�g/m�;20070106 19:00;20070106 20:00;;1.349;
BC;uur;�g/m�;20070106 20:00;20070106 21:00;;1.425;
BC;uur;�g/m�;20070106 21:00;20070106 22:00;;0.867;
BC;uur;�g/m�;20070106 22:00;20070106 23:00;;0.707;
BC;uur;�g/m�;20070106 23:00;20070107 00:00;;0.632;
BC;uur;�g/m�;20070107 00:00;20070107 01:00;;0.5;
BC;uur;�g/m�;20070107 01:00;20070107 02:00;;0.262;
BC;uur;�g/m�;20070107 02:00;20070107 03:00;;0.285;
BC;uur;�g/m�;20070107 03:00;20070107 04:00;;0.364;
BC;uur;�g/m�;20070107 04:00;20070107 05:00;;0.828;
BC;uur;�g/m�;20070107 05:00;20070107 06:00;;0.871;
BC;uur;�g/m�;20070107 06:00;20070107 07:00;;0.689;
BC;uur;�g/m�;20070107 07:00;20070107 08:00;;0.558;
BC;uur;�g/m�;20070107 08:00;20070107 09:00;;0.352;
BC;uur;�g/m�;20070107 09:00;20070107 10:00;;0.412;
BC;uur;�g/m�;20070107 10:00;20070107 11:00;;0.461;
BC;uur;�g/m�;20070107 11:00;20070107 12:00;;0.559;
BC;uur;�g/m�;20070107 12:00;20070107 13:00;;0.629;
BC;uur;�g/m�;20070107 13:00;20070107 14:00;;0.834;
BC;uur;�g/m�;20070107 14:00;20070107 15:00;;0.685;
BC;uur;�g/m�;20070107 15:00;20070107 16:00;;0.922;
BC;uur;�g/m�;20070107 16:00;20070107 17:00;;1.036;
BC;uur;�g/m�;20070107 17:00;20070107 18:00;;0.846;
BC;uur;�g/m�;20070107 18:00;20070107 19:00;;0.73;
BC;uur;�g/m�;20070107 19:00;20070107 20:00;;0.704;
BC;uur;�g/m�;20070107 20:00;20070107 21:00;;1;
BC;uur;�g/m�;20070107 21:00;20070107 22:00;;0.963;
BC;uur;�g/m�;20070107 22:00;20070107 23:00;;0.768;
BC;uur;�g/m�;20070107 23:00;20070108 00:00;;0.632;
BC;uur;�g/m�;20070108 00:00;20070108 01:00;;0.478;
BC;uur;�g/m�;20070108 01:00;20070108 02:00;;0.357;
BC;uur;�g/m�;20070108 02:00;20070108 03:00;;0.41;
BC;uur;�g/m�;20070108 03:00;20070108 04:00;;0.293;
BC;uur;�g/m�;20070108 04:00;20070108 05:00;;0.269;
BC;uur;�g/m�;20070108 05:00;20070108 06:00;;0.312;
BC;uur;�g/m�;20070108 06:00;20070108 07:00;;0.477;
BC;uur;�g/m�;20070108 07:00;20070108 08:00;;0.822;
BC;uur;�g/m�;20070108 08:00;20070108 09:00;;1.061;
BC;uur;�g/m�;20070108 09:00;20070108 10:00;;0.876;
BC;uur;�g/m�;20070108 10:00;20070108 11:00;;1.179;
BC;uur;�g/m�;20070108 11:00;20070108 12:00;;1.08;
BC;uur;�g/m�;20070108 12:00;20070108 13:00;;0.833;
BC;uur;�g/m�;20070108 13:00;20070108 14:00;;1.126;
BC;uur;�g/m�;20070108 14:00;20070108 15:00;;1.34;
BC;uur;�g/m�;20070108 15:00;20070108 16:00;;1.197;
BC;uur;�g/m�;20070108 16:00;20070108 17:00;;1.477;
BC;uur;�g/m�;20070108 17:00;20070108 18:00;;1.603;
BC;uur;�g/m�;20070108 18:00;20070108 19:00;;1.136;
BC;uur;�g/m�;20070108 19:00;20070108 20:00;;1.098;
BC;uur;�g/m�;20070108 20:00;20070108 21:00;;1.071;
BC;uur;�g/m�;20070108 21:00;20070108 22:00;;0.954;
BC;uur;�g/m�;20070108 22:00;20070108 23:00;;0.621;
BC;uur;�g/m�;20070108 23:00;20070109 00:00;;0.516;
BC;uur;�g/m�;20070109 00:00;20070109 01:00;;0.443;
BC;uur;�g/m�;20070109 01:00;20070109 02:00;;0.277;
BC;uur;�g/m�;20070109 02:00;20070109 03:00;;0.23;
BC;uur;�g/m�;20070109 03:00;20070109 04:00;;0.263;
BC;uur;�g/m�;20070109 04:00;20070109 05:00;;0.237;
BC;uur;�g/m�;20070109 05:00;20070109 06:00;;0.315;
BC;uur;�g/m�;20070109 06:00;20070109 07:00;;0.472;
BC;uur;�g/m�;20070109 07:00;20070109 08:00;;0.774;
BC;uur;�g/m�;20070109 08:00;20070109 09:00;;0.824;
BC;uur;�g/m�;20070109 09:00;20070109 10:00;;0.873;
BC;uur;�g/m�;20070109 10:00;20070109 11:00;;0.943;
BC;uur;�g/m�;20070109 11:00;20070109 12:00;;0.928;
BC;uur;�g/m�;20070109 12:00;20070109 13:00;;0.762;
BC;uur;�g/m�;20070109 13:00;20070109 14:00;;1.084;
BC;uur;�g/m�;20070109 14:00;20070109 15:00;;1.111;
BC;uur;�g/m�;20070109 15:00;20070109 16:00;;1.142;
BC;uur;�g/m�;20070109 16:00;20070109 17:00;;1.185;
BC;uur;�g/m�;20070109 17:00;20070109 18:00;;1.128;
BC;uur;�g/m�;20070109 18:00;20070109 19:00;;1.031;
BC;uur;�g/m�;20070109 19:00;20070109 20:00;;0.83;
BC;uur;�g/m�;20070109 20:00;20070109 21:00;;0.688;
BC;uur;�g/m�;20070109 21:00;20070109 22:00;;0.917;
BC;uur;�g/m�;20070109 22:00;20070109 23:00;;1.018;
BC;uur;�g/m�;20070109 23:00;20070110 00:00;;0.857;
BC;uur;�g/m�;20070110 00:00;20070110 01:00;;0.578;
BC;uur;�g/m�;20070110 01:00;20070110 02:00;;0.375;
BC;uur;�g/m�;20070110 02:00;20070110 03:00;;0.433;
BC;uur;�g/m�;20070110 03:00;20070110 04:00;;0.44;
BC;uur;�g/m�;20070110 04:00;20070110 05:00;;0.443;
BC;uur;�g/m�;20070110 05:00;20070110 06:00;;0.451;
BC;uur;�g/m�;20070110 06:00;20070110 07:00;;0.556;
BC;uur;�g/m�;20070110 07:00;20070110 08:00;;0.776;
BC;uur;�g/m�;20070110 08:00;20070110 09:00;;1.311;
BC;uur;�g/m�;20070110 09:00;20070110 10:00;;1.442;
BC;uur;�g/m�;20070110 10:00;20070110 11:00;;1.363;
BC;uur;�g/m�;20070110 11:00;20070110 12:00;;1.428;
BC;uur;�g/m�;20070110 12:00;20070110 13:00;;1.433;
BC;uur;�g/m�;20070110 13:00;20070110 14:00;;1.457;
BC;uur;�g/m�;20070110 14:00;20070110 15:00;;1.386;
BC;uur;�g/m�;20070110 15:00;20070110 16:00;;5.807;
BC;uur;�g/m�;20070110 16:00;20070110 17:00;;1.312;
BC;uur;�g/m�;20070110 17:00;20070110 18:00;;0.837;
BC;uur;�g/m�;20070110 18:00;20070110 19:00;;0.817;
BC;uur;�g/m�;20070110 19:00;20070110 20:00;;0.65;
BC;uur;�g/m�;20070110 20:00;20070110 21:00;;0.494;
BC;uur;�g/m�;20070110 21:00;20070110 22:00;;0.569;
BC;uur;�g/m�;20070110 22:00;20070110 23:00;;0.614;
BC;uur;�g/m�;20070110 23:00;20070111 00:00;;0.447;
BC;uur;�g/m�;20070111 00:00;20070111 01:00;;0.375;
BC;uur;�g/m�;20070111 01:00;20070111 02:00;;0.381;
BC;uur;�g/m�;20070111 02:00;20070111 03:00;;0.662;
BC;uur;�g/m�;20070111 03:00;20070111 04:00;;0.767;
BC;uur;�g/m�;20070111 04:00;20070111 05:00;;0.706;
BC;uur;�g/m�;20070111 05:00;20070111 06:00;;0.395;
BC;uur;�g/m�;20070111 06:00;20070111 07:00;;0.61;
BC;uur;�g/m�;20070111 07:00;20070111 08:00;;0.762;
BC;uur;�g/m�;20070111 08:00;20070111 09:00;;0.763;
BC;uur;�g/m�;20070111 09:00;20070111 10:00;;0.997;
BC;uur;�g/m�;20070111 10:00;20070111 11:00;;0.987;
BC;uur;�g/m�;20070111 11:00;20070111 12:00;;1.306;
BC;uur;�g/m�;20070111 12:00;20070111 13:00;;1.034;
BC;uur;�g/m�;20070111 13:00;20070111 14:00;;0.863;
BC;uur;�g/m�;20070111 14:00;20070111 15:00;;0.761;
BC;uur;�g/m�;20070111 15:00;20070111 16:00;;1.08;
BC;uur;�g/m�;20070111 16:00;20070111 17:00;;0.532;
BC;uur;�g/m�;20070111 17:00;20070111 18:00;;0.59;
BC;uur;�g/m�;20070111 18:00;20070111 19:00;;0.579;
BC;uur;�g/m�;20070111 19:00;20070111 20:00;;0.408;
BC;uur;�g/m�;20070111 20:00;20070111 21:00;;0.397;
BC;uur;�g/m�;20070111 21:00;20070111 22:00;;0.36;
BC;uur;�g/m�;20070111 22:00;20070111 23:00;;0.395;
BC;uur;�g/m�;20070111 23:00;20070112 00:00;;0.451;
BC;uur;�g/m�;20070112 00:00;20070112 01:00;;0.406;
BC;uur;�g/m�;20070112 01:00;20070112 02:00;;0.383;
BC;uur;�g/m�;20070112 02:00;20070112 03:00;;0.401;
BC;uur;�g/m�;20070112 03:00;20070112 04:00;;0.389;
BC;uur;�g/m�;20070112 04:00;20070112 05:00;;0.298;
BC;uur;�g/m�;20070112 05:00;20070112 06:00;;0.426;
BC;uur;�g/m�;20070112 06:00;20070112 07:00;;0.706;
BC;uur;�g/m�;20070112 07:00;20070112 08:00;;1.045;
BC;uur;�g/m�;20070112 08:00;20070112 09:00;;1.239;
BC;uur;�g/m�;20070112 09:00;20070112 10:00;;1.863;
BC;uur;�g/m�;20070112 10:00;20070112 11:00;;1.325;
BC;uur;�g/m�;20070112 11:00;20070112 12:00;;1.116;
BC;uur;�g/m�;20070112 12:00;20070112 13:00;;1.09;
BC;uur;�g/m�;20070112 13:00;20070112 14:00;;1.082;
BC;uur;�g/m�;20070112 14:00;20070112 15:00;;1.046;
BC;uur;�g/m�;20070112 15:00;20070112 16:00;;1.291;
BC;uur;�g/m�;20070112 16:00;20070112 17:00;;0.793;
BC;uur;�g/m�;20070112 17:00;20070112 18:00;;0.704;
BC;uur;�g/m�;20070112 18:00;20070112 19:00;;0.641;
BC;uur;�g/m�;20070112 19:00;20070112 20:00;;0.74;
BC;uur;�g/m�;20070112 20:00;20070112 21:00;;0.763;
BC;uur;�g/m�;20070112 21:00;20070112 22:00;;0.537;
BC;uur;�g/m�;20070112 22:00;20070112 23:00;;0.595;
BC;uur;�g/m�;20070112 23:00;20070113 00:00;;0.391;
BC;uur;�g/m�;20070113 00:00;20070113 01:00;;0.408;
BC;uur;�g/m�;20070113 01:00;20070113 02:00;;0.373;
BC;uur;�g/m�;20070113 02:00;20070113 03:00;;0.34;
BC;uur;�g/m�;20070113 03:00;20070113 04:00;;0.369;
BC;uur;�g/m�;20070113 04:00;20070113 05:00;;0.601;
BC;uur;�g/m�;20070113 05:00;20070113 06:00;;0.492;
BC;uur;�g/m�;20070113 06:00;20070113 07:00;;0.38;
BC;uur;�g/m�;20070113 07:00;20070113 08:00;;0.544;
BC;uur;�g/m�;20070113 08:00;20070113 09:00;;0.873;
BC;uur;�g/m�;20070113 09:00;20070113 10:00;;1.069;
BC;uur;�g/m�;20070113 10:00;20070113 11:00;;1.025;
BC;uur;�g/m�;20070113 11:00;20070113 12:00;;0.741;
BC;uur;�g/m�;20070113 12:00;20070113 13:00;;0.681;
BC;uur;�g/m�;20070113 13:00;20070113 14:00;;0.98;
BC;uur;�g/m�;20070113 14:00;20070113 15:00;;0.901;
BC;uur;�g/m�;20070113 15:00;20070113 16:00;;0.785;
BC;uur;�g/m�;20070113 16:00;20070113 17:00;;0.686;
BC;uur;�g/m�;20070113 17:00;20070113 18:00;;0.723;
BC;uur;�g/m�;20070113 18:00;20070113 19:00;;0.84;
BC;uur;�g/m�;20070113 19:00;20070113 20:00;;0.969;
BC;uur;�g/m�;20070113 20:00;20070113 21:00;;0.8;
BC;uur;�g/m�;20070113 21:00;20070113 22:00;;0.713;
BC;uur;�g/m�;20070113 22:00;20070113 23:00;;0.545;
BC;uur;�g/m�;20070113 23:00;20070114 00:00;;0.502;
BC;uur;�g/m�;20070114 00:00;20070114 01:00;;0.353;
BC;uur;�g/m�;20070114 01:00;20070114 02:00;;0.246;
BC;uur;�g/m�;20070114 02:00;20070114 03:00;;0.235;
BC;uur;�g/m�;20070114 03:00;20070114 04:00;;0.203;
BC;uur;�g/m�;20070114 04:00;20070114 05:00;;0.217;
BC;uur;�g/m�;20070114 05:00;20070114 06:00;;0.234;
BC;uur;�g/m�;20070114 06:00;20070114 07:00;;0.284;
BC;uur;�g/m�;20070114 07:00;20070114 08:00;;0.361;
BC;uur;�g/m�;20070114 08:00;20070114 09:00;;0.355;
BC;uur;�g/m�;20070114 09:00;20070114 10:00;;0.444;
BC;uur;�g/m�;20070114 10:00;20070114 11:00;;0.362;
BC;uur;�g/m�;20070114 11:00;20070114 12:00;;0.317;
BC;uur;�g/m�;20070114 12:00;20070114 13:00;;0.307;
BC;uur;�g/m�;20070114 13:00;20070114 14:00;;0.39;
BC;uur;�g/m�;20070114 14:00;20070114 15:00;;0.46;
BC;uur;�g/m�;20070114 15:00;20070114 16:00;;0.403;
BC;uur;�g/m�;20070114 16:00;20070114 17:00;;0.614;
BC;uur;�g/m�;20070114 17:00;20070114 18:00;;1.136;
BC;uur;�g/m�;20070114 18:00;20070114 19:00;;1.348;
BC;uur;�g/m�;20070114 19:00;20070114 20:00;;1.667;
BC;uur;�g/m�;20070114 20:00;20070114 21:00;;1.948;
BC;uur;�g/m�;20070114 21:00;20070114 22:00;;1.686;
BC;uur;�g/m�;20070114 22:00;20070114 23:00;;1.645;
BC;uur;�g/m�;20070114 23:00;20070115 00:00;;1.627;
BC;uur;�g/m�;20070115 00:00;20070115 01:00;;1.183;
BC;uur;�g/m�;20070115 01:00;20070115 02:00;;1.115;
BC;uur;�g/m�;20070115 02:00;20070115 03:00;;1.02;
BC;uur;�g/m�;20070115 03:00;20070115 04:00;;1.136;
BC;uur;�g/m�;20070115 04:00;20070115 05:00;;1.231;
BC;uur;�g/m�;20070115 05:00;20070115 06:00;;1.271;
BC;uur;�g/m�;20070115 06:00;20070115 07:00;;1.701;
BC;uur;�g/m�;20070115 07:00;20070115 08:00;;3.267;
BC;uur;�g/m�;20070115 08:00;20070115 09:00;;2.054;
BC;uur;�g/m�;20070115 09:00;20070115 10:00;;2.604;
BC;uur;�g/m�;20070115 10:00;20070115 11:00;;1.832;
BC;uur;�g/m�;20070115 11:00;20070115 12:00;;4.958;
BC;uur;�g/m�;20070115 12:00;20070115 13:00;;;
BC;uur;�g/m�;20070115 13:00;20070115 14:00;;;
BC;uur;�g/m�;20070115 14:00;20070115 15:00;;;
BC;uur;�g/m�;20070115 15:00;20070115 16:00;;;
BC;uur;�g/m�;20070115 16:00;20070115 17:00;;;
BC;uur;�g/m�;20070115 17:00;20070115 18:00;;;
BC;uur;�g/m�;20070115 18:00;20070115 19:00;;;
BC;uur;�g/m�;20070115 19:00;20070115 20:00;;;
BC;uur;�g/m�;20070115 20:00;20070115 21:00;;;
BC;uur;�g/m�;20070115 21:00;20070115 22:00;;;
BC;uur;�g/m�;20070115 22:00;20070115 23:00;;;
BC;uur;�g/m�;20070115 23:00;20070116 00:00;;;
BC;uur;�g/m�;20070116 00:00;20070116 01:00;;;
BC;uur;�g/m�;20070116 01:00;20070116 02:00;;;
BC;uur;�g/m�;20070116 02:00;20070116 03:00;;;
BC;uur;�g/m�;20070116 03:00;20070116 04:00;;;
BC;uur;�g/m�;20070116 04:00;20070116 05:00;;;
BC;uur;�g/m�;20070116 05:00;20070116 06:00;;;
BC;uur;�g/m�;20070116 06:00;20070116 07:00;;;
BC;uur;�g/m�;20070116 07:00;20070116 08:00;;;
BC;uur;�g/m�;20070116 08:00;20070116 09:00;;;
BC;uur;�g/m�;20070116 09:00;20070116 10:00;;;
BC;uur;�g/m�;20070116 10:00;20070116 11:00;;2.204;
BC;uur;�g/m�;20070116 11:00;20070116 12:00;;2.074;
BC;uur;�g/m�;20070116 12:00;20070116 13:00;;2.078;
BC;uur;�g/m�;20070116 13:00;20070116 14:00;;2.614;
BC;uur;�g/m�;20070116 14:00;20070116 15:00;;2.441;
BC;uur;�g/m�;20070116 15:00;20070116 16:00;;2.423;
BC;uur;�g/m�;20070116 16:00;20070116 17:00;;2.747;
BC;uur;�g/m�;20070116 17:00;20070116 18:00;;2.473;
BC;uur;�g/m�;20070116 18:00;20070116 19:00;;2.212;
BC;uur;�g/m�;20070116 19:00;20070116 20:00;;2.028;
BC;uur;�g/m�;20070116 20:00;20070116 21:00;;2.187;
BC;uur;�g/m�;20070116 21:00;20070116 22:00;;2.216;
BC;uur;�g/m�;20070116 22:00;20070116 23:00;;2.163;
BC;uur;�g/m�;20070116 23:00;20070117 00:00;;2.079;
BC;uur;�g/m�;20070117 00:00;20070117 01:00;;2.023;
BC;uur;�g/m�;20070117 01:00;20070117 02:00;;2.174;
BC;uur;�g/m�;20070117 02:00;20070117 03:00;;1.986;
BC;uur;�g/m�;20070117 03:00;20070117 04:00;;1.724;
BC;uur;�g/m�;20070117 04:00;20070117 05:00;;1.468;
BC;uur;�g/m�;20070117 05:00;20070117 06:00;;1.395;
BC;uur;�g/m�;20070117 06:00;20070117 07:00;;1.495;
BC;uur;�g/m�;20070117 07:00;20070117 08:00;;1.629;
BC;uur;�g/m�;20070117 08:00;20070117 09:00;;1.563;
BC;uur;�g/m�;20070117 09:00;20070117 10:00;;1.417;
BC;uur;�g/m�;20070117 10:00;20070117 11:00;;1.686;
BC;uur;�g/m�;20070117 11:00;20070117 12:00;;1.465;
BC;uur;�g/m�;20070117 12:00;20070117 13:00;;1.322;
BC;uur;�g/m�;20070117 13:00;20070117 14:00;;1.359;
BC;uur;�g/m�;20070117 14:00;20070117 15:00;;1.386;
BC;uur;�g/m�;20070117 15:00;20070117 16:00;;1.445;
BC;uur;�g/m�;20070117 16:00;20070117 17:00;;0.674;
BC;uur;�g/m�;20070117 17:00;20070117 18:00;;1.014;
BC;uur;�g/m�;20070117 18:00;20070117 19:00;;1.23;
BC;uur;�g/m�;20070117 19:00;20070117 20:00;;1.186;
BC;uur;�g/m�;20070117 20:00;20070117 21:00;;;
BC;uur;�g/m�;20070117 21:00;20070117 22:00;;0.871;
BC;uur;�g/m�;20070117 22:00;20070117 23:00;;0.988;
BC;uur;�g/m�;20070117 23:00;20070118 00:00;;0.752;
BC;uur;�g/m�;20070118 00:00;20070118 01:00;;0.72;
BC;uur;�g/m�;20070118 01:00;20070118 02:00;;0.413;
BC;uur;�g/m�;20070118 02:00;20070118 03:00;;0.22;
BC;uur;�g/m�;20070118 03:00;20070118 04:00;;0.349;
BC;uur;�g/m�;20070118 04:00;20070118 05:00;;0.316;
BC;uur;�g/m�;20070118 05:00;20070118 06:00;;1.003;
BC;uur;�g/m�;20070118 06:00;20070118 07:00;;0.889;
BC;uur;�g/m�;20070118 07:00;20070118 08:00;;1.113;
BC;uur;�g/m�;20070118 08:00;20070118 09:00;;0.851;
BC;uur;�g/m�;20070118 09:00;20070118 10:00;;0.77;
BC;uur;�g/m�;20070118 10:00;20070118 11:00;;0.583;
BC;uur;�g/m�;20070118 11:00;20070118 12:00;;0.574;
BC;uur;�g/m�;20070118 12:00;20070118 13:00;;0.754;
BC;uur;�g/m�;20070118 13:00;20070118 14:00;;0.861;
BC;uur;�g/m�;20070118 14:00;20070118 15:00;;0.847;
BC;uur;�g/m�;20070118 15:00;20070118 16:00;;0.764;
BC;uur;�g/m�;20070118 16:00;20070118 17:00;;0.377;
BC;uur;�g/m�;20070118 17:00;20070118 18:00;;0.504;
BC;uur;�g/m�;20070118 18:00;20070118 19:00;;0.379;
BC;uur;�g/m�;20070118 19:00;20070118 20:00;;0.32;
BC;uur;�g/m�;20070118 20:00;20070118 21:00;;0.345;
BC;uur;�g/m�;20070118 21:00;20070118 22:00;;0.345;
BC;uur;�g/m�;20070118 22:00;20070118 23:00;;0.414;
BC;uur;�g/m�;20070118 23:00;20070119 00:00;;0.387;
BC;uur;�g/m�;20070119 00:00;20070119 01:00;;0.242;
BC;uur;�g/m�;20070119 01:00;20070119 02:00;;0.261;
BC;uur;�g/m�;20070119 02:00;20070119 03:00;;0.179;
BC;uur;�g/m�;20070119 03:00;20070119 04:00;;0.221;
BC;uur;�g/m�;20070119 04:00;20070119 05:00;;0.147;
BC;uur;�g/m�;20070119 05:00;20070119 06:00;;0.16;
BC;uur;�g/m�;20070119 06:00;20070119 07:00;;0.386;
BC;uur;�g/m�;20070119 07:00;20070119 08:00;;0.732;
BC;uur;�g/m�;20070119 08:00;20070119 09:00;;0.802;
BC;uur;�g/m�;20070119 09:00;20070119 10:00;;0.663;
BC;uur;�g/m�;20070119 10:00;20070119 11:00;;0.864;
BC;uur;�g/m�;20070119 11:00;20070119 12:00;;0.833;
BC;uur;�g/m�;20070119 12:00;20070119 13:00;;0.571;
BC;uur;�g/m�;20070119 13:00;20070119 14:00;;0.582;